Tracking 19717 objects as of 25-Jun-2019
HD Live streaming from Space Station
objects crossing your sky now

DELTA 1 DEB

Track DELTA 1 DEB now!
10-day predictions


NORAD ID: 15788
Int'l Code: 1978-026GT
Perigee: 848.4 km
Apogee: 1,030.5 km
Inclination: 98.7 °
Period: 103.7 minutes
Semi major axis: 7310 km
RCS: 0.005 m2 (small)
Launch date: March 5, 1978
Source: United States (US)
Launch site: AIR FORCE WESTERN TEST RANGE (AFWTR)

Note: This is SATELLITE DEBRIS
aabbcc
Your satellite tracking list
Your tracking list is empty




NASA's NSSDC Master Catalog

Two Line Element Set (TLE):
1 15788U 78026GT  19175.55244237 +.00000061 +00000-0 +79247-4 0  9997
2 15788 098.7100 182.9585 0124534 358.4564 125.7436 13.88957249848990
Source of the keplerian elements: AFSPC